Location: Rounton
(54.4000°N, 1.3500°W)
Time: 22:30:59
(UTC+01:00)

Vanguard 1 - Pass Details

Date: 22 February 2024
Orbit: 653 x 3825 km, 34.2° (Epoch: 21 April)

Event Time Altitude Azimuth Distance (km) Brightness Sun altitude
Rises 23:00:04 0° 252° (WSW) 6,634 14.4 -43.0°
Reaches altitude 10° 23:04:20 10° 245° (WSW) 5,970 14.0 -43.3°
Enters shadow 23:14:10 33° 221° (SW) 4,910 13.3 -43.9°
Maximum altitude 23:22:20 42° 184° (S) 4,720 - -44.3°
Drops below altitude 10° 23:42:31 10° 124° (SE) 6,633 - -45.1°
Sets 23:47:37 0° 118° (ESE) 7,399 - -45.3°
